When you browse on this site, cookies collect data to enhance your experience and personalize the content and advertising you see.
Visit our Privacy Policy to learn more. By continuing to use the site, you agree to this use of cookies and data.
  • In United Kingdom
  • List of Countries
  • For 7 days
  • Water Temperature
  • Satellite Maps
  • Weather Map
  • Weather Widgets
  • user-avatar
    Login

    Hourly Weather Nashavar

    Today, 21 March, Thursday

    Time Temperature Precipitation Wind Pressure Humidity
    00:00 +17°C° 0 mm 2 mps 732 mmHg 49%
    01:00 +16°C° 0 mm 2 mps 732 mmHg 48%
    02:00 +16°C° 0 mm 2 mps 732 mmHg 48%
    03:00 +16°C° 0 mm 2 mps 732 mmHg 47%
    04:00 +15°C° 0 mm 2 mps 732 mmHg 46%
    05:00 +14°C° 0 mm 3 mps 731 mmHg 38%
    06:00 +16°C° 0 mm 3 mps 732 mmHg 37%
    07:00 +17°C° 0 mm 3 mps 732 mmHg 36%
    08:00 +17°C° 0 mm 3 mps 732 mmHg 34%
    09:00 +19°C° 0 mm 3 mps 733 mmHg 31%
    10:00 +21°C° 0 mm 3 mps 733 mmHg 28%
    11:00 +24°C° 0 mm 3 mps 732 mmHg 25%
    12:00 +24°C° 0 mm 3 mps 732 mmHg 24%
    13:00 +25°C° 0 mm 2 mps 732 mmHg 24%
    14:00 +26°C° 0 mm 2 mps 732 mmHg 23%
    15:00 +26°C° 0 mm 2 mps 732 mmHg 23%
    16:00 +25°C° 0 mm 2 mps 732 mmHg 24%
    17:00 +25°C° 0 mm 1 mps 732 mmHg 24%
    18:00 +24°C° 0 mm 2 mps 732 mmHg 27%
    19:00 +23°C° 0 mm 2 mps 733 mmHg 29%
    20:00 +20°C° 0 mm 2 mps 733 mmHg 32%
    21:00 +20°C° 0 mm 2 mps 733 mmHg 33%
    22:00 +19°C° 0 mm 2 mps 733 mmHg 34%
    23:00 +19°C° 0 mm 2 mps 734 mmHg 35%

    Tomorrow, 22 March, Friday

    Time Temperature Precipitation Wind Pressure Humidity
    00:00 +18°C° 0 mm 2 mps 734 mmHg 35%
    01:00 +17°C° 0 mm 2 mps 734 mmHg 35%
    02:00 +17°C° 0 mm 2 mps 734 mmHg 35%
    03:00 +17°C° 0 mm 2 mps 734 mmHg 34%
    04:00 +16°C° 0 mm 2 mps 733 mmHg 34%
    05:00 +16°C° 0 mm 2 mps 733 mmHg 33%
    06:00 +16°C° 0 mm 2 mps 734 mmHg 32%
    07:00 +17°C° 0 mm 2 mps 734 mmHg 31%
    08:00 +18°C° 0 mm 2 mps 734 mmHg 30%
    09:00 +19°C° 0 mm 2 mps 734 mmHg 27%
    10:00 +21°C° 0 mm 2 mps 734 mmHg 24%
    11:00 +24°C° 0 mm 2 mps 734 mmHg 21%
    12:00 +25°C° 0 mm 2 mps 734 mmHg 21%
    13:00 +25°C° 0 mm 2 mps 734 mmHg 20%
    14:00 +26°C° 0 mm 1 mps 733 mmHg 20%
    15:00 +26°C° 0 mm 1 mps 733 mmHg 20%
    16:00 +26°C° 0 mm 1 mps 733 mmHg 21%
    17:00 +26°C° 0 mm 1 mps 732 mmHg 21%
    18:00 +25°C° 0 mm 1 mps 733 mmHg 24%
    19:00 +23°C° 0 mm 1 mps 733 mmHg 27%
    20:00 +22°C° 0 mm 1 mps 733 mmHg 30%
    21:00 +22°C° 0 mm 1 mps 733 mmHg 30%
    22:00 +22°C° 0 mm 1 mps 733 mmHg 30%
    23:00 +21°C° 0 mm 1 mps 733 mmHg 31%

    Day after tomorrow, 23 March, Saturday

    Time Temperature Precipitation Wind Pressure Humidity
    00:00 +21°C° 0 mm 1 mps 733 mmHg 32%
    01:00 +21°C° 0 mm 1 mps 733 mmHg 34%
    02:00 +20°C° 0 mm 1 mps 733 mmHg 35%
    03:00 +20°C° 0 mm 1 mps 733 mmHg 36%
    04:00 +18°C° 0 mm 2 mps 733 mmHg 36%
    05:00 +18°C° 0 mm 2 mps 733 mmHg 37%
    06:00 +18°C° 0 mm 2 mps 733 mmHg 37%
    07:00 +18°C° 0 mm 2 mps 733 mmHg 38%
    08:00 +19°C° 0 mm 2 mps 733 mmHg 39%
    09:00 +20°C° 0 mm 3 mps 733 mmHg 35%
    10:00 +22°C° 0 mm 3 mps 733 mmHg 30%
    11:00 +24°C° 0 mm 3 mps 733 mmHg 26%
    12:00 +25°C° 0 mm 3 mps 733 mmHg 24%
    13:00 +25°C° 0 mm 2 mps 733 mmHg 23%
    14:00 +26°C° 0 mm 2 mps 733 mmHg 21%
    15:00 +25°C° 0 mm 2 mps 732 mmHg 24%
    16:00 +25°C° 0 mm 2 mps 732 mmHg 27%
    17:00 +24°C° 0 mm 3 mps 732 mmHg 30%
    18:00 +22°C° 0 mm 3 mps 732 mmHg 32%
    19:00 +21°C° 0 mm 3 mps 732 mmHg 34%
    20:00 +20°C° 0 mm 3 mps 732 mmHg 36%
    21:00 +19°C° 0 mm 3 mps 732 mmHg 37%
    22:00 +19°C° 0 mm 3 mps 732 mmHg 38%
    23:00 +18°C° 0 mm 2 mps 732 mmHg 39%

    24 March, Sunday

    Time Temperature Precipitation Wind Pressure Humidity
    00:00 +18°C° 0 mm 2 mps 732 mmHg 39%
    01:00 +18°C° 0 mm 2 mps 732 mmHg 39%
    02:00 +17°C° 0 mm 2 mps 731 mmHg 40%
    03:00 +17°C° 0 mm 2 mps 731 mmHg 40%
    04:00 +16°C° 0 mm 2 mps 731 mmHg 40%
    05:00 +16°C° 0 mm 2 mps 731 mmHg 41%
    06:00 +17°C° 0 mm 2 mps 731 mmHg 39%
    07:00 +18°C° 0 mm 2 mps 732 mmHg 37%
    08:00 +19°C° 0 mm 2 mps 732 mmHg 35%
    09:00 +21°C° 0 mm 2 mps 732 mmHg 31%
    10:00 +23°C° 0 mm 2 mps 732 mmHg 26%
    11:00 +25°C° 0 mm 2 mps 733 mmHg 22%
    12:00 +26°C° 0 mm 2 mps 732 mmHg 20%
    13:00 +27°C° 0 mm 2 mps 731 mmHg 19%
    14:00 +28°C° 0 mm 2 mps 731 mmHg 18%
    15:00 +28°C° 0 mm 2 mps 731 mmHg 18%
    16:00 +28°C° 0 mm 2 mps 730 mmHg 19%
    17:00 +27°C° 0 mm 2 mps 730 mmHg 20%
    18:00 +26°C° 0 mm 2 mps 730 mmHg 21%
    19:00 +25°C° 0 mm 2 mps 730 mmHg 23%
    20:00 +23°C° 0 mm 2 mps 731 mmHg 25%
    21:00 +23°C° 0 mm 2 mps 731 mmHg 26%
    22:00 +21°C° 0 mm 2 mps 731 mmHg 26%
    23:00 +21°C° 0 mm 2 mps 731 mmHg 27%

    25 March, Monday

    Time Temperature Precipitation Wind Pressure Humidity
    00:00 +20°C° 0 mm 2 mps 731 mmHg 27%
    01:00 +19°C° 0 mm 2 mps 731 mmHg 28%
    02:00 +19°C° 0 mm 2 mps 730 mmHg 28%
    03:00 +18°C° 0 mm 2 mps 730 mmHg 28%
    04:00 +18°C° 0 mm 2 mps 730 mmHg 28%
    05:00 +18°C° 0 mm 2 mps 730 mmHg 28%
    06:00 +18°C° 0 mm 2 mps 730 mmHg 28%
    07:00 +19°C° 0 mm 2 mps 731 mmHg 28%
    08:00 +20°C° 0 mm 2 mps 731 mmHg 27%
    09:00 +23°C° 0 mm 2 mps 731 mmHg 24%
    10:00 +24°C° 0 mm 3 mps 732 mmHg 21%
    11:00 +26°C° 0 mm 3 mps 732 mmHg 18%
    12:00 +27°C° 0 mm 2 mps 732 mmHg 17%
    13:00 +28°C° 0 mm 2 mps 731 mmHg 15%
    14:00 +29°C° 0 mm 2 mps 731 mmHg 14%
    15:00 +29°C° 0 mm 1 mps 731 mmHg 14%
    16:00 +29°C° 0 mm 1 mps 731 mmHg 15%
    17:00 +29°C° 0 mm 1 mps 731 mmHg 15%
    18:00 +28°C° 0 mm 1 mps 731 mmHg 17%
    19:00 +26°C° 0 mm 1 mps 731 mmHg 19%
    20:00 +25°C° 0 mm 1 mps 731 mmHg 20%
    21:00 +24°C° 0 mm 1 mps 732 mmHg 21%
    22:00 +23°C° 0 mm 1 mps 732 mmHg 22%
    23:00 +21°C° 0 mm 2 mps 732 mmHg 23%

    26 March, Tuesday

    Time Temperature Precipitation Wind Pressure Humidity
    00:00 +21°C° 0 mm 2 mps 731 mmHg 23%
    01:00 +20°C° 0 mm 2 mps 731 mmHg 23%
    02:00 +20°C° 0 mm 2 mps 731 mmHg 23%
    03:00 +19°C° 0 mm 2 mps 731 mmHg 23%
    04:00 +19°C° 0 mm 2 mps 731 mmHg 23%
    05:00 +18°C° 0 mm 2 mps 731 mmHg 23%
    06:00 +19°C° 0 mm 2 mps 731 mmHg 23%
    07:00 +20°C° 0 mm 2 mps 732 mmHg 23%
    08:00 +21°C° 0 mm 2 mps 732 mmHg 24%
    09:00 +24°C° 0 mm 3 mps 732 mmHg 22%
    10:00 +26°C° 0 mm 3 mps 732 mmHg 20%
    11:00 +28°C° 0 mm 3 mps 732 mmHg 18%
    12:00 +29°C° 0 mm 3 mps 732 mmHg 17%
    13:00 +30°C° 0 mm 2 mps 731 mmHg 16%
    14:00 +31°C° 0 mm 2 mps 730 mmHg 15%
    15:00 +31°C° 0 mm 2 mps 730 mmHg 15%
    16:00 +31°C° 0 mm 1 mps 730 mmHg 16%
    17:00 +31°C° 0 mm 1 mps 730 mmHg 16%
    18:00 +29°C° 0 mm 1 mps 730 mmHg 19%
    19:00 +25°C° 0 mm 0 mps 731 mmHg 22%
    20:00 +23°C° 0 mm 0 mps 731 mmHg 24%
    21:00 +23°C° 0 mm 0 mps 731 mmHg 25%
    22:00 +22°C° 0 mm 0 mps 731 mmHg 26%
    23:00 +22°C° 0 mm 0 mps 731 mmHg 27%
    Show more